World > North America > United States > Iowa > Baldwin  

Baldwin, IA Hourly Weather Updates

Feedback E-mail the Weather

Quick Clicks

Baldwin, IA Weather Maps

°F °C°F °C
Baldwin Weather Map
UTC Time: 7/24/2024, 07:09
Your Time:

Baldwin, IA Regional Weather

Expires:202407240800;;199828
ASUS43 KDMX 240706
RWRIA 

WEATHER ROUNDUP FOR IOWA
NATIONAL WEATHER SERVICE DES MOINES IA
200 AM CDT WED JUL 24 2024

NOTE: "FAIR" INDICATES FEW OR NO CLOUDS BELOW 12,000 FEET WITH NO
SIGNIFICANT WEATHER AND/OR OBSTRUCTIONS TO VISIBILITY.

* - THESE STATIONS ARE NOT NWS STATIONS...THUS NOT UNDER NWS
QUALITY CONTROL.  THEY ALSO DO NOT REPORT WEATHER SUCH 
AS PRECIPITATION OR FOG.  


IAZ007>011-017>019-026>030-037>042-050>054-066-240800-
   NORTHEAST IOWA
  
CITY           SKY/WX    TMP DP  RH WIND       PRES   REMARKS
CEDAR RAPIDS   MOCLDY    66  66 100 NW7       30.08S SMOKE   TC  19   
CHARLES CITY * MOCLDY    66  66 100 NE3       30.09F FOG     TC  19   
CLINTON *      FOG      N/A N/A N/A NW3       30.08F VSB 1/2          
DECORAH *      CLOUDY    64  64 100 CALM      30.09R FOG     TC  18   
DUBUQUE        PTCLDY    63  63 100 CALM      30.08S FOG     TC  17   
MONTICELLO *   MOCLDY    64  64 100 E3        30.05F FOG     TC  18   
OELWEIN *      CLOUDY    66  66 100 W15       30.12R FOG     TC  19   
WATERLOO       LGT RAIN  69  68  96 CALM      30.09R TC  21           
$$
 

SKY/WX - Weather  TMP - Temperature  DP - Dew Point  RH - Humidity
WIND - Wind Direction/Speed PRES - Barometric Pressure VSB - Visibility
WCI - Wind Chill Index E13G22 Wind - East Wind 13 mph/Gusts of 22 mph

Trending Headlines

Trending Entertainment Headlines

Baldwin Radar Loop

Use the map search tool if you want to place a location marker on the radar map...

Baldwin Quick Facts

National Two Day Weather Forecast


E-mail the Baldwin Weather Forecast

Voice your opinion or tell us about page issues...